www.pogodaiklimat.ru

Погода и климат >> Архив погоды >> Россия >> Красноярский край >> Снежногорск


ПОГОДА в Снежногорске

  • Прогноз погоды в Снежногорске
  • Монитор погоды в Снежногорске

АРХИВ ПОГОДЫ в Снежногорске

Время (UTC), дата Ветер
(напр.,м/с)
 
Видим.   Явления Облачность Т
(С)
Тd
(С)
f
(%)
Тe
(С)
Тes
(С)
Комфортность P
(гПа)
Po
(гПа)
Тmin
(С)
Tmax
(С)
R
(мм)
R24
(мм)
S
(см)
21 19.03 ЮЗ 2 4000 м слаб. снег 10/0 2000 м
[As op]
-9.9 -12.5 81 -14 -14 1022.1 1009.7
00 20.03 ЮЗ 2 10 км слаб. снег 10/0 2000 м
[Ac As]
-9.8 -12.4 81 -14 -14 1021.5 1009.1 -11.7 2 150
03 20.03 Ю 1 10 км слаб. снег 10/3 600 м
[Sc Ac As]
-9.1 -11.6 82 -11 -11 1021.8 1009.5
06 20.03 Ю 1 10 км {снег} 10/10 600 м
[Sc]
-8.2 -10.9 81 -11 -11 1021.9 1009.6
09 20.03 Ю 3 20 км 10/10 600 м
[Sc]
-7.1 -10.0 80 -13 -13 1021.3 1009.1
12 20.03 Ю 2 20 км 10/10 600 м
[Sc]
-6.6 -9.4 80 -11 -11 1020.6 1008.4 -6.6 0.3
15 20.03 Ю 3 4000 м слаб. ливневой снег 10/10 600 м
[Cb cap]
-6.8 -9.2 83 -12 -12 1018.8 1006.7
18 20.03 Ю 3 4000 м слаб. ливневой снег 10/10 600 м
[Cb cap]
-7.0 -9.3 84 -13 -13 1015.1 1003.0
21 20.03 ЮВ 3 4000 м слаб. снег 10/0 600 м
[As op]
-5.6 -7.4 87 -11 -11 1011.3 999.2
00 21.03 Ю 5-10
{13}
4000 м слаб. снег 10/0 600 м
[As op]
-4.9 -7.0 85 -12 -12 1007.7 995.8 -6.8 4 147
03 21.03 Ю 5-10
{12}
4000 м слаб. ливневой снег 10/0 600 м
[As op]
-4.5 -6.8 84 -12 -11 1005.6 993.7
06 21.03 ЮЗ 3-10
{13}
4000 м слаб. снег {метель} 10/0 600 м
[As op]
-3.8 -6.4 82 -9 -8 1004.0 992.1
09 21.03 ЮЗ 1 4000 м слаб. снег 10/0 600 м
[As op]
-3.5 -6.0 83 -6 -5 1003.5 991.6
12 21.03 З 1 10 км слаб. снег 10/3 600 м
[Sc Ac As]
-3.5 -6.0 83 -6 -6 1003.5 991.6 -3.1 4
15 21.03 З 2 10 км слаб. снег 10/0 2000 м
[Ac As]
-3.7 -6.2 83 -8 -8 1003.8 991.9
18 21.03 З 3 10 км слаб. снег 10/0 2000 м
[Ac As]
-4.0 -6.6 82 -9 -9 1004.2 992.3
21 21.03 З 2 4000 м слаб. снег 10/0 600 м
[As op]
-4.2 -6.8 82 -8 -8 1004.5 992.5
00 22.03 З 3 4000 м слаб. снег 10/0 600 м
[As op]
-4.0 -6.6 82 -9 -9 1004.1 992.2 -4.4 2 147
03 22.03 З 4 10 км слаб. снег 10/0 600 м
[As op]
-3.7 -6.2 83 -10 -10 1004.1 992.2
06 22.03 СЗ 4
{11}
20 км позёмок {снег} 10/10 600 м
[Sc]
-3.6 -6.5 80 -10 -10 1005.2 993.3
09 22.03 СЗ 3 10 км слаб. ливневой снег {метель} 10/10 600 м
[Cb cap]
-3.8 -7.5 75 -9 -9 1007.5 995.6
12 22.03 СЗ 4 20 км {ливн. осадки, метель} ясно -6.2 -10.6 71 -13 -13 1009.1 997.1 -3.4 1
15 22.03 З 2 10 км ясно -8.6 -12.9 71 -13 -13 1011.4 999.2
18 22.03 штиль 0 10 км ясно -10.6 -15.0 70 -11 -11 1013.1 1000.8
21 22.03 В 1 10 км ясно -14.0 -18.3 70 -16 -16 1014.7 1002.3
00 23.03 В 3 10 км ясно -16.5 -21.5 65 -23 -23 1015.8 1003.2 -16.5 147
03 23.03 В 3 20 км ясно -16.1 -21.2 65 -23 -21 1016.5 1003.9 -17.3
06 23.03 СВ 2 20 км 10/0
[]
-15.0 -20.1 65 -20 -18 1017.3 1004.8
09 23.03 СВ 2 20 км ясно -12.8 -20.0 55 -17 -15 1017.4 1005.0
12 23.03 В 2 20 км ясно -13.6 -20.7 55 -18 -18 1017.6 1005.1 -12.8
15 23.03 В 2 10 км 10/0
[Ac und]
-13.1 -19.2 60 -18 -18 1017.0 1004.5
18 23.03 В 2 10 км слаб. снег 10/0
[Ac As]
-12.7 -17.9 65 -17 -17 1016.6 1004.2
21 23.03 В 2 10 км слаб. снег 10/0 2000 м
[Ac As]
-14.6 -19.7 65 -20 -20 1016.1 1003.6
00 24.03 В 2 10 км слаб. снег 10/0 2000 м
[Ac As]
-12.2 -15.6 76 -17 -17 1015.6 1003.2 -14.6 0.5 173
03 24.03 В 2 10 км слаб. снег 10/0 2000 м
[Ac As]
-11.5 -18.4 57 -16 -15 1015.6 1003.2
06 24.03 В 1 10 км слаб. снег 10/0 2000 м
[Ac As]
-9.6 -13.7 72 -12 -11 1015.7 1003.4
09 24.03 В 1 10 км слаб. снег 10/0 2000 м
[Ac As]
-8.5 -11.7 78 -11 -10 1015.9 1003.7
12 24.03 В 1 10 км слаб. снег 10/0 2000 м
[Ac As]
-6.2 -9.3 79 -8 -8 1016.5 1004.4 -6.2 2
15 24.03 Ю 1 10 км слаб. снег 10/0
[As op]
-6.0 -9.1 79 -8 -8 1017.2 1005.1
18 24.03 Ю 2 10 км слаб. снег 10/0 2000 м
[As op]
-6.2 -9.3 79 -10 -10 1017.5 1005.4
21 24.03 Ю 2 10 км слаб. снег 10/0
[As op]
-6.5 -9.8 77
00 25.03 ЮЗ 2 10 км {снег} 10/0 2000 м
[Ac lent]
-8.4 -9.6 91 -13 -13 1017.4 1005.3 -6.6 0.3 173
03 25.03 ЮЗ 3 10 км слаб. снег 10/0
[Ac As]
-5.4 -8.7 78 -11 -10 1017.4 1005.3
06 25.03 ЮЗ 5
{10}
20 км позёмок {снег} 10/10 1000 м
[Sc]
-4.0 -8.1 73 -11 -11 1017.6 1005.6
09 25.03 ЮЗ 3
{11}
20 км {метель} 10/8 1000 м
[Sc Ac As]
-3.3 -7.6 72 -8 -8 1017.8 1005.8
12 25.03 ЮЗ 2 20 км {метель} 9/5 1000 м
[Sc Ac trans]
-3.5 -7.9 72 -7 -7 1018.6 1006.6 -3.0 0.2
15 25.03 ЮЗ 2 10 км 9/3 1000 м
[Sc Ac trans]
-3.6 -8.0 71 -7 -7 1019.8 1007.7
18 25.03 ЮЗ 1 10 км 8/8 1000 м
[Sc]
-4.1 -8.7 70 -6 -6 1020.3 1008.2
21 25.03 ЮЗ 3 10 км 10/10 1000 м
[Sc]
-4.2 -8.4 72 -9 -9 1020.4 1008.3
00 26.03 Ю 4 10 км 4/1 1000 м
[Sc Ac trans]
-5.1 -9.2 73 -11 -11 1021.0 1008.9 -5.1 148
03 26.03 ЮЗ 3 20 км 8/3 1000 м
[Sc Ac trans]
-4.0 -7.7 75 -9 -8 1022.2 1010.1 -5.4
06 26.03 ЮЗ 4 20 км 5/0
[Ac lent Ci fib]
-2.0 -6.6 71 -8 -6 1022.4 1010.4
09 26.03 ЮЗ 2 20 км 8/3 1000 м
[Sc Ac trans]
-1.1 -5.4 73 -5 -4 1022.5 1010.6
12 26.03 ЮЗ 3 20 км 6/0
[Ci sp]
-1.6 -6.1 71 -6 -6 1022.3 1010.3 -1.1
15 26.03 ЮЗ 4 10 км 3/0
[Ci sp]
-3.6 -8.8 67 -9 -9 1022.2 1010.1

 

Местоположение метеостанции Снежногорск (Красноярский край, Россия): широта 68.10 долгота 87.77 высота над уровнем моря 94 м.

В архиве по умолчанию представлена погода в Снежногорске за последнюю неделю. Архивные данные за месяц целиком и за предыдущие месяцы, начиная с января 2011 года, Вы можете получить, выбрав интересующий диапазон дат из раскрывающегося списка и нажав кнопку "Ввод!".


*Определитесь, кто Вы:
робот инопланетянин человек

Внимание! Время в таблицах - всемирное. Для получения местного времени необходимо прибавить поправку, которая равна 7 ч.

Смотрите также архив погоды в соседних городах и на ближайших метеорологических станциях:

Погода в Горбиачине (Красноярский край, Россия) (69 км)
Погода в Игарке (Красноярский край, Россия) (86 км)
Погода в Потапово (Красноярский край, Россия) (89 км)
Погода в Светлогорске (Красноярский край, Россия) (131 км)
Погода в Норильске (Красноярский край, Россия) (138 км)
Погода в Курейке (Красноярский край, Россия) (183 км)
Погода в Советской Речке (Красноярский край, Россия) (221 км)
Погода в Туруханске (Красноярский край, Россия) (258 км)
Погода в Агате (Эвенкия, Россия) (278 км)
Погода в Карауле (Красноярский край, Россия) (286 км)

Пояснения к столбцам:

Ветер - указаны скорость ветра в м/с - средняя за 10 мин, порывы в срок и между сроками (в фигурных скобках) и направление, откуда дует ветер: С - северный, СВ - северо-восточный, В - восточный, ЮВ - юго-восточный, Ю - южный, ЮЗ - юго-западный, З - западный, СЗ - северо-западный.
Видимость - горизонтальная дальность видимости в метрах или километрах. При видимости от 1 до 10 км при отсутствии осадков обычно наблюдается дымка, при ухудшении видимости до 1 км и менее - туман. В сухую погоду видимость может ухудшаться дымом, пылью или мглою.
Явления - указаны атмосферные явления, наблюдавшиеся в срок или в последний час перед сроком; фигурными скобками обозначены явления, наблюдавшиеся между сроками (за 1-3 часа до срока); квадратными скобками обозначены град или гололедные отложения с указанием их диаметра в мм.
Облачность - указаны через наклонную черту общая и нижняя облачность в баллах и высота нижней границы облаков в метрах; квадратными скобками обозначены формы облаков: Ci - перистые, Cs - перисто-слоистые, Cc - перисто-кучевые, Ac - высококучевые, As - высокослоистые, Sc - слоисто-кучевые, Ns - слоисто-дождевые, Cu - кучевые, Cb - кучево-дождевые. Подробнее классификацию облаков см. в Атласе облаков (PDF).
T - Температура воздуха - температура, измеренная на высоте 2 м над землей.
Td - Температура точки росы - температура, при понижении до которой содержащийся в воздухе водяной пар достигнет насыщения.
f - Относительная влажность воздуха - влажноcть воздуха, измеренная на высоте 2 м над землей.
Te - Эффективная температура - температура, которую ощущает одетый по сезону человек в тени. Характеристика душности погоды. При расчете учитывается влияние влажности воздуха и скорости ветра на теплоощущения человека.
Tes - Эффективная температура на солнце - температура, которую ощущает человек, с поправкой на солнечный нагрев. Характеристика знойности погоды. Зависит от высоты солнца над горизонтом, облачности и скорости ветра. Ночью, в пасмурную погоду, а также при ветре 12 м/с и более поправка равна нулю.
P - Атмосферное давление - приведенное к уровню моря атмосферное давление.
Po - Атмосферное давление - измеренное на уровне метеостанции атмосферное давление.
Tmin - Минимальная температура - минимум температуры воздуха на высоте 2 м над землей.
Tmax - Максимальная температура - максимум температуры воздуха на высоте 2 м над землей.
R - Количество осадков - Количество выпавших осадков за период времени, мм. При наведении курсора мыши на число - период времени, за который выпало указанное количество осадков.
R24 - Количество осадков - Количество выпавших осадков за 24 часа, мм.
S - Снежный покров - Высота снежного покрова, см. При наведении курсора мыши на число - состояние снежного покрова и степень покрытия местности в баллах.